Weather History for Riverside, CA

Change the Weather History Date:

Thursday, April 25, 2013

  Actual Average Record
Temperature  
Mean Temperature 64 °F 65 °F  
Max Temperature 71 °F 77 °F 98 °F (2004)
Min Temperature 57 °F 52 °F 37 °F (1942)
Degree Days  
Heating Degree Days 1 3  
Month to date heating degree days 46 97  
Since 1 July heating degree days 1162 1410  
Cooling Degree Days 0 2  
Month to date cooling degree days 31 32  
Year to date cooling degree days 69 53  
Growing Degree Days 14 (Base 50)    
Moisture  
Dew Point 47 °F    
Average Humidity 58    
Maximum Humidity 72    
Minimum Humidity 44    
Precipitation  
Precipitation 0.00 in 0.03 in 0.65 in (1951)
Month to date precipitation T 0.67  
Year to date precipitation 2.11 8.66  
Since 1 July precipitation 4.02 11.87  
Snow  
Snow 0.00 in - - ()
Month to date snowfall 0.0  
Year to date snowfall 0.0  
Since 1 July snowfall 0.0  
Snow Depth 0.00 in    
Sea Level Pressure  
Sea Level Pressure 29.99 in    
Wind  
Wind Speed 4 mph (West)    
Max Wind Speed 10 mph    
Max Gust Speed 15 mph    
Visibility 10 miles    
Events      
T = Trace of Precipitation, MM = Missing Value Source: NWS Daily Summary

Daily Weather History Graph

Daily Weather History Graph

Search for Another Location

Airport:

Trip Planner

Search our weather history database for the weather conditions in past years. The results will help you decide how hot, cold, wet, or windy it might be!

Date:

Astronomy

Apr. 25, 2013 Rise Set
Actual Time 6:06 AM PDT 7:29 PM PDT
Civil Twilight 5:40 AM PDT 7:55 PM PDT
Nautical Twilight 5:09 AM PDT 8:26 PM PDT
Astronomical Twilight 4:36 AM PDT 8:59 PM PDT
Moon 7:45 PM PDT (4/25) 5:52 AM PDT (4/25)
Length of Visible Light 14h 15m
Length of Day
13h 22m
Full, 100% of the Moon is Illuminated
Apr 25
Full
Apr 25
Full
May 2
Last Quarter
May 9
New
May 17
First Quarter

Hourly Weather History & Observations

Time (PDT) Temp. Dew Point Humidity Pressure Visibility Wind Dir Wind Speed Gust Speed Precip Events Conditions
12:51 AM 57.2 °F 46.4 °F 67% 29.97 in 10.0 mi West 5.8 mph - N/A   Overcast
12:53 AM 57.9 °F 46.9 °F 67% 29.94 in 10.0 mi West 5.8 mph - N/A   Overcast
1:12 AM 57.2 °F 46.4 °F 67% 29.97 in 10.0 mi Variable 4.6 mph - N/A   Overcast
1:53 AM 57.0 °F 48.0 °F 72% 29.94 in 10.0 mi West 5.8 mph - N/A   Overcast
2:40 AM 57.2 °F 46.4 °F 67% 29.96 in 10.0 mi West 4.6 mph - N/A   Overcast
2:53 AM 57.0 °F 46.9 °F 69% 29.93 in 10.0 mi West 4.6 mph - N/A   Overcast
3:07 AM 57.2 °F 46.4 °F 67% 29.96 in 10.0 mi West 4.6 mph - N/A   Overcast
3:19 AM 57.2 °F 46.4 °F 67% 29.96 in 10.0 mi West 6.9 mph - N/A   Overcast
3:53 AM 57.0 °F 46.9 °F 69% 29.94 in 10.0 mi West 5.8 mph - N/A   Overcast
4:53 AM 57.0 °F 48.0 °F 72% 29.95 in 10.0 mi West 4.6 mph - N/A   Overcast
5:01 AM 57.2 °F 48.2 °F 72% 29.98 in 10.0 mi West 4.6 mph - N/A   Overcast
5:16 AM 57.2 °F 48.2 °F 72% 29.98 in 10.0 mi West 3.5 mph - N/A   Overcast
5:53 AM 57.0 °F 48.0 °F 72% 29.96 in 10.0 mi Calm Calm - N/A   Overcast
6:51 AM 57.2 °F 48.2 °F 72% 30.01 in 10.0 mi Calm Calm - N/A   Overcast
6:53 AM 57.0 °F 48.9 °F 74% 29.98 in 10.0 mi Calm Calm - N/A   Overcast
7:53 AM 57.0 °F 48.9 °F 74% 30.00 in 10.0 mi Calm Calm - N/A   Overcast
8:53 AM 57.9 °F 48.0 °F 70% 30.02 in 10.0 mi Calm Calm - N/A   Overcast
9:53 AM 61.0 °F 48.0 °F 62% 30.04 in 10.0 mi Calm Calm - N/A   Overcast
10:53 AM 64.0 °F 46.9 °F 54% 30.05 in 10.0 mi Calm Calm - N/A   Overcast
11:53 AM 64.9 °F 46.0 °F 50% 30.04 in 10.0 mi Variable 4.6 mph - N/A   Overcast
12:53 PM 66.0 °F 45.0 °F 47% 30.02 in 10.0 mi Variable 4.6 mph - N/A   Mostly Cloudy
1:53 PM 68.0 °F 46.0 °F 45% 30.02 in 10.0 mi WSW 9.2 mph - N/A   Mostly Cloudy
2:53 PM 70.0 °F 46.0 °F 42% 30.01 in 10.0 mi Variable 5.8 mph - N/A   Mostly Cloudy
3:53 PM 70.0 °F 46.0 °F 42% 29.99 in 10.0 mi Variable 5.8 mph - N/A   Partly Cloudy
4:53 PM 70.0 °F 46.9 °F 44% 29.99 in 10.0 mi Variable 4.6 mph - N/A   Partly Cloudy
5:53 PM 70.0 °F 46.9 °F 44% 29.98 in 10.0 mi WNW 6.9 mph - N/A   Partly Cloudy
6:53 PM 69.1 °F 46.9 °F 45% 29.99 in 10.0 mi West 6.9 mph - N/A   Partly Cloudy
7:53 PM 64.9 °F 46.0 °F 50% 30.01 in 10.0 mi West 6.9 mph - N/A   Clear
8:53 PM 63.0 °F 45.0 °F 52% 30.04 in 10.0 mi West 6.9 mph - N/A   Clear
9:53 PM 60.1 °F 45.0 °F 57% 30.07 in 10.0 mi West 5.8 mph - N/A   Clear
10:53 PM 59.0 °F 46.0 °F 62% 30.07 in 10.0 mi Calm Calm - N/A   Clear